Location: Acts Church of Fort Worth
(32.6786°N, 97.2668°W)
Time: 20:34:06
(UTC+00:00)

Cosmos 1535 Rocket - Pass Details

Date: 18 January 2026
Orbit: 948 x 1003 km, 83.0° (Epoch: 10 February)

Event Time Altitude Azimuth Distance (km) Brightness Sun altitude
Rises 01:53:57 0° 354° (N) 3,730 7.5 -26.2°
Reaches altitude 10° 01:56:30 10° 355° (N) 2,773 6.8 -26.7°
Maximum altitude 02:02:53 88° 85° (E) 998 4.4 -28.1°
Drops below altitude 10° 02:09:10 10° 175° (S) 2,729 6.8 -29.4°
Sets 02:11:39 0° 175° (S) 3,666 7.5 -29.9°
